Regional Weather Roundup
Issued by NWS Goodland, KS

Home | Current Version | Previous Version | Text Only | Print | Product List | Glossary Off
Versions: 1 2 3 4 5 6 7 8 9 10 11 12 13 14 15 16 17 18 19 20 21 22 23 24 25 26 27 28 29 30 31 32 33 34 35 36 37 38 39 40 41 42 43 44 45 46 47 48 49 50

510
ASUS43 KGLD 281259
RWRGLD

GOODLAND FORECAST AREA HOURLY WEATHER ROUNDUP
NATIONAL WEATHER SERVICE GOODLAND KS
700 AM MDT FRI APR 28 2017

...OFFICIAL OBSERVATIONS...

CITY           SKY/WX    TMP DP  RH WIND       PRES   REMARKS
GOODLAND KS    CLOUDY    39  38  96 W12       29.65R
HILL CITY KS   MOSUNNY   47  46  97 SW6       29.61R FOG
IMPERIAL NEB   LGT RAIN  35  34  96 NE13      29.66R
MCCOOK NEB     LGT RAIN  42  42 100 NE20G25   29.60R FOG
AKRON CO       SUNNY     31  30  96 W3        29.65R
BURLINGTON CO  NOT AVBL
LIMON CO       SUNNY     30  28  92 N3        29.67R
$$

...UNOFFICIAL OBSERVATIONS...

CITY           SKY/WX    TMP DP  RH WIND       PRES   REMARKS
LENORA KS        N/A     45  32  60 MISG        N/A
NORTON KS      DRIZZLE   45  43  93 E7        29.59R
SHARON SPRINGS   N/A     35  34  95 W7          N/A
KIT CARSON CO    N/A     33  30  88 CALM        N/A
$$




USA.gov is the U.S. government's official web portal to all federal, state and local government web resources and services.